Latest Coastal Weather Observations for King Island Airport

IDT60701

Issued at 7:55 pm EST Saturday 20 September 2014 (issued every 10 minutes, with the page automatically refreshed every 10 minutes)

About coastal observations | Map of coastal stations | Coastal observations for TAS | Marine services | Other Formats
Station Details ID: 098017 Name: KING ISLAND AIRPORT Lat: -39.88 Lon: 143.88 Height: 37.0 m
Data from the previous 72 hours. | See also: Recent months at King Island Airport
Date/Time
EST
Temp

°C
Wind Pressure Rain
since 9am
mm
Weather Cloud Vis
km
Sea
Height
m
Swell
Dir
 
Speed
knots
Gust
knots
hPa Trend Height
m
Period
s
Dir
20/07:30pm 11.1 SSW 4 5 1030.1 - 0.0 - Cloudy 10 - - - -
20/07:00pm 11.2 SSW 5 7 1029.8 - 0.0 - Cloudy 10 - - - -
20/06:30pm 11.4 SW 5 6 1029.6 - 0.0 - Cloudy 10 - - - -
20/06:00pm 11.6 SSW 7 8 1029.7 - 0.0 - Cloudy 10 - - - -
20/05:30pm 11.9 SSW 10 15 1029.3 - 0.0 - Cloudy 10 - - - -
20/05:00pm 11.8 SSW 12 16 1029.0 - 0.0 - Partly cloudy 10 - - - -
20/04:30pm 12.1 SSW 13 18 1028.7 - 0.0 - Cloudy 10 - - - -
20/04:00pm 12.2 SSW 12 16 1028.5 - 0.0 - Partly cloudy 10 - - - -
20/03:30pm 12.8 SSW 12 16 1028.6 - 0.0 - Partly cloudy 10 - - - -
20/03:00pm 12.6 SW 11 15 1028.7 - 0.0 - Cloudy 10 - - - -
20/02:30pm 12.8 SSW 15 19 1028.6 - 0.0 - Partly cloudy 10 - - - -
20/02:00pm 12.9 SW 15 19 1028.5 - 0.0 - Partly cloudy 10 - - - -
20/01:30pm 12.8 SW 13 18 1028.4 - 0.0 - Partly cloudy 10 - - - -
20/01:00pm 12.8 SW 11 15 1028.5 - 0.0 - Cloudy 10 - - - -
20/12:30pm 12.6 SW 11 14 1028.5 - 0.0 - Partly cloudy 10 - - - -
20/12:00pm 13.4 SW 12 18 1028.4 - 0.0 - Cloudy 10 - - - -
20/11:30am 12.6 SSW 12 17 1028.3 - 0.0 - Partly cloudy 10 - - - -
20/11:00am 12.8 SW 12 16 1028.4 - 0.0 - Partly cloudy 10 - - - -
20/10:30am 13.0 SSW 11 16 1028.6 - 0.0 - Partly cloudy 10 - - - -
20/10:00am 12.5 SSW 14 18 1028.6 - 0.0 - Partly cloudy 10 - - - -
20/09:30am 12.5 S 11 16 1028.4 - 0.0 - Partly cloudy 10 - - - -
20/09:00am 11.9 SSW 12 18 1028.4 - 1.8 - Mostly cloudy 10 - - - -
20/08:30am 11.8 SSW 16 21 1028.4 - 1.8 - Partly cloudy 10 - - - -
20/08:00am 10.8 SSW 9 12 1028.0 - 1.8 - Partly cloudy 10 - - - -
20/07:30am 10.1 S 8 11 1027.9 - 1.8 - Partly cloudy 10 - - - -
20/07:00am 9.9 SSW 8 12 1027.4 - 1.6 - Partly cloudy 10 - - - -
20/06:30am 9.9 SSW 6 8 1026.9 - 1.6 - Partly cloudy 8 - - - -
20/06:00am 9.3 SW 8 10 1026.6 - 1.4 Drizzle Partly cloudy 10 - - - -
20/05:30am 9.7 SW 11 16 1026.2 - 1.4 - Partly cloudy 10 - - - -
20/05:00am 9.9 SW 9 12 1025.7 - 1.4 - Partly cloudy 10 - - - -
20/04:30am 10.0 SW 9 14 1025.4 - 1.4 - Partly cloudy 10 - - - -
20/04:00am 10.3 SW 12 18 1025.2 - 1.4 - Partly cloudy 10 - - - -
20/03:30am 10.0 SW 11 15 1025.1 - 1.4 - Partly cloudy 10 - - - -
20/03:00am 10.1 SW 11 15 1025.1 - 1.4 Drizzle Cloudy 10 - - - -
20/02:30am 10.1 SW 8 12 1025.0 - 1.2 - Partly cloudy 8 - - - -
20/02:00am 10.4 SSW 13 18 1025.2 - 0.8 - Partly cloudy 10 - - - -
20/01:30am 10.3 SW 8 12 1025.1 - 0.8 - Partly cloudy 10 - - - -
20/01:00am 10.4 S 8 10 1025.2 - 0.8 - Partly cloudy 10 - - - -
20/12:30am 10.0 SW 13 20 1025.2 - 0.8 - Partly cloudy 8 - - - -
20/12:29am 10.0 SW 13 20 1025.2 - 0.8 - Partly cloudy 8 - - - -
20/12:16am 10.0 SW 14 22 1025.2 - 0.6 - Partly cloudy 5 - - - -
20/12:00am 10.0 SW 13 17 1025.1 - 0.6 Drizzle Cloudy 10 - - - -
 
Date/Time
EST
Temp

°C
Wind Pressure Rain
since 9am
mm
Weather Cloud Vis
km
Sea
Height
m
Swell
Dir
 
Speed
knots
Gust
knots
hPa Trend Height
m
Period
s
Dir
19/11:30pm 10.0 SW 11 17 1025.2 - 0.6 - Partly cloudy 10 - - - -
19/11:00pm 10.3 WSW 14 19 1025.3 - 0.6 - Partly cloudy 10 - - - -
19/10:30pm 10.8 SW 14 19 1025.3 - 0.6 - Partly cloudy 10 - - - -
19/10:00pm 10.9 SW 12 16 1025.2 - 0.6 - Partly cloudy 10 - - - -
19/09:30pm 10.7 SW 12 15 1025.2 - 0.6 - Partly cloudy 10 - - - -
19/09:00pm 10.6 SSW 11 14 1025.2 - 0.6 Showers Cloudy 10 - - - -
19/08:30pm 10.7 SW 13 18 1025.1 - 0.2 - Partly cloudy 10 - - - -
19/08:00pm 10.5 WSW 12 17 1025.0 - 0.2 - Partly cloudy 10 - - - -
19/07:30pm 10.9 SW 13 18 1024.8 - 0.2 - Partly cloudy 10 - - - -
19/07:00pm 10.6 SW 14 19 1024.6 - 0.2 - Partly cloudy 10 - - - -
19/06:30pm 11.0 SW 13 18 1024.2 - 0.2 - Partly cloudy 10 - - - -
19/06:00pm 10.7 WSW 15 20 1024.1 - 0.2 - Mostly cloudy 10 - - - -
19/05:30pm 11.2 SW 14 19 1023.9 - 0.2 - Partly cloudy 10 - - - -
19/05:00pm 11.5 SW 15 21 1023.7 - 0.2 - Partly cloudy 10 - - - -
19/04:30pm 10.4 SW 16 21 1023.7 - 0.2 - Partly cloudy 10 - - - -
19/04:00pm 11.2 SW 15 19 1023.8 - 0.2 - Partly cloudy 10 - - - -
19/03:30pm 12.8 WSW 16 21 1023.6 - 0.2 - Partly cloudy 10 - - - -
19/03:00pm 12.5 SW 16 21 1023.5 - 0.2 - Cloudy 10 - - - -
19/02:30pm 11.9 SW 16 21 1023.5 - 0.2 - Partly cloudy 10 - - - -
19/02:14pm 12.2 SW 21 24 1023.4 - 0.2 - Partly cloudy 10 - - - -
19/02:00pm 11.7 WSW 16 21 1023.4 - 0.2 - Partly cloudy 10 - - - -
19/01:30pm 12.9 WSW 16 23 1023.5 - 0.0 - Partly cloudy 10 - - - -
19/01:00pm 12.2 W 13 19 1023.6 - 0.0 - Partly cloudy 10 - - - -
19/12:30pm 11.8 WSW 19 26 1023.8 - 0.0 - Partly cloudy 10 - - - -
19/12:00pm 13.3 WSW 16 22 1023.7 - 0.0 - Mostly cloudy 10 - - - -
19/11:30am 13.1 WSW 16 21 1023.8 - 0.0 - Partly cloudy 10 - - - -
19/11:00am 13.7 WSW 17 22 1023.8 - 0.0 - Partly cloudy 10 - - - -
19/10:30am 12.9 SW 17 24 1024.0 - 0.0 - Partly cloudy 10 - - - -
19/10:00am 12.5 SW 17 22 1024.1 - 0.0 - Partly cloudy 10 - - - -
19/09:30am 13.0 SW 16 21 1024.2 - 0.0 - Cloudy 10 - - - -
19/09:00am 12.4 SW 18 22 1024.0 - 0.6 - Mostly clear 10 - - - -
19/08:30am 12.2 SW 16 20 1023.9 - 0.6 - Partly cloudy 10 - - - -
19/08:00am 11.1 SW 17 24 1023.9 - 0.6 - Partly cloudy 10 - - - -
19/07:30am 11.3 SW 15 19 1023.6 - 0.6 - Cloudy 10 - - - -
19/07:00am 10.2 WSW 12 16 1023.5 - 0.6 - Partly cloudy 10 - - - -
19/06:30am 11.1 SW 12 17 1023.2 - 0.4 - Partly cloudy 10 - - - -
19/06:00am 10.9 SW 13 17 1022.9 - 0.4 - Cloudy 10 - - - -
19/05:30am 10.5 WSW 12 17 1022.8 - 0.4 - Partly cloudy 10 - - - -
19/05:00am 10.2 WSW 12 16 1022.8 - 0.4 - Partly cloudy 10 - - - -
19/04:43am 10.1 SW 15 25 1022.8 - 0.4 - Partly cloudy 10 - - - -
19/04:30am 10.7 WSW 13 17 1022.6 - 0.4 - Partly cloudy 10 - - - -
19/04:00am 10.1 WSW 13 18 1022.4 - 0.4 - Partly cloudy 10 - - - -
19/03:30am 9.9 SW 13 20 1022.7 - 0.4 - Partly cloudy 10 - - - -
19/03:00am 10.8 WSW 14 20 1022.6 - 0.4 - Mostly cloudy 10 - - - -
19/02:30am 10.5 WSW 11 15 1022.8 - 0.4 - Partly cloudy 10 - - - -
19/02:00am 10.5 WSW 12 15 1022.9 - 0.4 - Partly cloudy 10 - - - -
19/01:30am 10.8 WSW 14 19 1023.1 - 0.4 - Partly cloudy 10 - - - -
19/01:00am 10.3 WSW 14 22 1023.2 - 0.4 - Partly cloudy 10 - - - -
19/12:30am 10.6 WSW 13 16 1023.2 - 0.4 - Partly cloudy 10 - - - -
19/12:00am 10.7 WSW 13 17 1023.3 - 0.4 - Partly cloudy 10 - - - -
 
Date/Time
EST
Temp

°C
Wind Pressure Rain
since 9am
mm
Weather Cloud Vis
km
Sea
Height
m
Swell
Dir
 
Speed
knots
Gust
knots
hPa Trend Height
m
Period
s
Dir
18/11:30pm 10.8 WSW 13 17 1023.4 - 0.4 - Partly cloudy 10 - - - -
18/11:00pm 10.9 WSW 13 19 1023.7 - 0.4 - Partly cloudy 10 - - - -
18/10:30pm 10.3 WSW 11 17 1023.9 - 0.4 - Partly cloudy 10 - - - -
18/10:00pm 10.6 WSW 12 17 1024.0 - 0.4 - Partly cloudy 10 - - - -
18/09:30pm 10.4 WSW 12 17 1023.9 - 0.4 - Partly cloudy 10 - - - -
18/09:00pm 10.6 WSW 14 19 1023.8 - 0.4 - Partly cloudy 10 - - - -
18/08:30pm 10.7 WSW 12 17 1023.6 - 0.4 - Partly cloudy 10 - - - -
18/08:00pm 10.4 WSW 13 17 1023.6 - 0.4 - Partly cloudy 10 - - - -
18/07:30pm 10.5 WSW 15 20 1023.5 - 0.4 - Partly cloudy 10 - - - -
18/07:00pm 10.6 WSW 15 21 1023.2 - 0.4 - Partly cloudy 10 - - - -
18/06:30pm 10.4 WSW 14 19 1023.0 - 0.4 - Partly cloudy 10 - - - -
18/06:00pm 10.4 WSW 14 21 1023.0 - 0.4 - - 10 - - - -
18/05:30pm 10.9 SW 15 20 1022.9 - 0.4 - Partly cloudy 10 - - - -
18/05:00pm 11.8 SW 14 17 1022.7 - 0.4 - Partly cloudy 10 - - - -
18/04:30pm 11.4 SW 16 21 1022.6 - 0.4 - Partly cloudy 10 - - - -
18/04:00pm 12.1 SW 17 25 1022.6 - 0.4 - Partly cloudy 10 - - - -
18/03:30pm 12.0 SW 17 23 1022.6 - 0.4 - Partly cloudy 10 - - - -
18/03:00pm 12.5 SW 17 22 1022.5 - 0.4 - Partly cloudy 10 - - - -
18/02:30pm 12.9 SW 18 23 1022.4 - 0.4 - Partly cloudy 10 - - - -
18/02:00pm 12.8 SW 18 23 1022.3 - 0.4 - Partly cloudy - - - - -
18/01:30pm 12.0 SW 16 20 1022.3 - 0.4 - Partly cloudy 10 - - - -
18/01:00pm 12.8 SW 15 22 1022.1 - 0.4 - - - - - - -
18/12:30pm 12.4 SW 16 23 1022.4 - 0.4 - - - - - - -
18/12:00pm 12.1 SW 18 22 1022.4 - 0.4 - - - - - - -
18/11:30am 11.8 SW 17 21 1022.5 - 0.4 - Partly cloudy 10 - - - -
18/11:00am 10.6 SSW 16 21 1022.6 - 0.4 - Partly cloudy 10 - - - -
18/10:30am 9.8 WSW 14 20 1022.6 - 0.4 - Partly cloudy 10 - - - -
18/10:00am 11.4 SW 18 25 1022.4 - 0.2 - Partly cloudy 10 - - - -
18/09:30am 10.6 SSW 18 23 1022.3 - 0.2 - Partly cloudy 10 - - - -
18/09:00am 11.2 SW 17 22 1021.9 - 2.6 - Cloudy 10 - - - -
18/08:30am 10.7 SW 15 19 1021.6 - 2.6 - Partly cloudy 10 - - - -
18/08:00am 9.4 SW 14 20 1021.4 - 2.6 - Partly cloudy 10 - - - -
18/07:48am 9.8 SW 20 25 1021.3 - 2.6 - Partly cloudy 10 - - - -
18/07:30am 9.0 S 13 18 1021.0 - 2.6 - Partly cloudy 10 - - - -
18/07:00am 9.6 SW 16 21 1020.6 - 2.6 - Partly cloudy 10 - - - -
18/06:30am 8.9 SW 11 16 1020.2 - 2.6 - Partly cloudy 10 - - - -
18/06:00am 8.4 SSW 14 20 1020.0 - 2.6 Showers Partly cloudy 10 - - - -
18/05:30am 9.5 SW 17 21 1019.4 - 2.6 - Partly cloudy 10 - - - -
18/05:00am 8.7 SSW 13 18 1019.3 - 2.6 - Partly cloudy 10 - - - -
18/04:30am 9.1 SSW 17 27 1019.0 - 2.6 - Partly cloudy 10 - - - -
18/04:26am 9.2 SSW 17 27 1019.0 - 2.6 - Partly cloudy 10 - - - -
18/04:00am 9.0 SW 18 23 1018.7 - 2.6 - Partly cloudy 10 - - - -
18/03:30am 9.0 SSW 17 23 1018.5 - 2.6 - Partly cloudy 10 - - - -
18/03:00am 8.9 SW 16 25 1018.4 - 2.6 Showers Partly cloudy 10 - - - -
18/02:30am 9.0 SSW 16 23 1018.2 - 2.4 - Partly cloudy 10 - - - -
18/02:00am 8.7 SW 17 25 1018.2 - 2.4 - Partly cloudy 10 - - - -
18/01:30am 8.9 SW 18 24 1018.2 - 2.4 - Partly cloudy 10 - - - -
18/01:00am 8.4 SW 16 23 1018.1 - 2.2 - Partly cloudy 10 - - - -
18/12:31am 8.9 SW 16 26 1018.1 - 2.2 - Partly cloudy 10 - - - -
18/12:30am 8.8 WSW 16 21 1018.1 - 2.2 - Partly cloudy 10 - - - -
18/12:00am 8.2 SSW 23 33 1018.0 - 2.2 Drizzle Partly cloudy 10 - - - -
 
Date/Time
EST
Temp

°C
Wind Pressure Rain
since 9am
mm
Weather Cloud Vis
km
Sea
Height
m
Swell
Dir
 
Speed
knots
Gust
knots
hPa Trend Height
m
Period
s
Dir
17/11:53pm 9.0 SW 23 33 1017.9 - 2.2 - Partly cloudy 10 - - - -
17/11:30pm 9.3 SW 18 27 1017.7 - 2.2 - Partly cloudy 10 - - - -
17/11:05pm 9.5 SW 21 31 1017.7 - 2.2 - Partly cloudy 10 - - - -
17/11:00pm 9.5 SW 23 31 1017.7 - 2.2 - Partly cloudy 10 - - - -
17/10:33pm 8.6 SW 16 26 1017.4 - 2.2 - Partly cloudy 10 - - - -
17/10:30pm 8.2 SW 16 22 1017.5 - 2.2 - Partly cloudy 10 - - - -
17/10:28pm 8.2 SW 17 22 1017.5 - 2.2 - Partly cloudy 10 - - - -
17/10:24pm 8.9 SW 30 35 1017.5 - 2.0 - Partly cloudy 10 - - - -
17/10:00pm 9.3 SW 18 28 1017.2 - 2.0 - Partly cloudy 10 - - - -
17/09:30pm 9.3 WSW 19 29 1017.1 - 2.0 - Partly cloudy 10 - - - -
17/09:00pm 8.9 SW 23 34 1016.8 - 2.0 Rain Partly cloudy 10 - - - -
17/08:30pm 7.9 SW 18 28 1016.6 - 2.0 - Partly cloudy 10 - - - -
17/08:00pm 8.2 WSW 20 34 1016.5 - 2.0 - Partly cloudy 10 - - - -

Other Formats:

Comma delimited format used in spreadsheet applications
http://www.bom.gov.au/fwo/IDT60701/IDT60701.94850.axf

JavaScript Object Notation format (JSON) in row-major order
http://www.bom.gov.au/fwo/IDT60701/IDT60701.94850.json